ORBCOMM FM20 (25416 NORAD) Tracking and Keplerian Element Data

This shows tracking and keplerian element data for the satellite.

Feedback or suggestion? Click here.




ElementValue
Catalog25416
NameORBCOMM FM20
Epoch Orbit43101
Epoch Day354.10610863
Epoch Year2025
RAAN20.5195
Inclination44.9952
Eccentricity0.000214
Argument of Perigee243.5048
Mean Anonmoly116.5581
Mean Motion14.3767851
Decay Rate5.78E-06
L11 25416U 98046D 25354.10610863 .00000578 00000+0 23754-3 0 9992
L22 25416 44.9952 20.5195 0002140 243.5048 116.5581 14.37678510431016



Live tracking and technical data element details for ORBCOMM FM20 (NORAD 25416). ORBCOMM FM20 can be tracked NOW for your location showing map with azimuth and elevation plus other details from your city location.







IsCatalogInMostPopularTable: catalog: 25416, numindb: 326
Update: records affected: 1



GetName: 25416 ORBCOMM FM20

Hit Count: updated at: Thu, 21 May 2026 10:24:32 GMT